Flag for Brazil Weather past 2 weeks in Rio Branco, Acre, Brazil

Now
90 °F

Scattered showers. Scattered clouds.


Feels Like: 98 °F
Forecast: 72 / 83 °F
Wind: 2 mph from Southeast

Location: Rio Branco Airport

Current Time: Sep 4, 2015 at 2:20:48 PM

Latest Report: Sep 4, 2015 at 2:00 PM


Visibility: N/A

Pressure: N/A

Humidity: 59%

Dew point: 73 °F

Location of Rio BrancoLocation

Historic Weather in Rio Branco — Graph

°F

Rio Branco temperature yesterday

Maximum temperature yesterday: 91 °F (at 11:00 AM)
Minimum temperature yesterday: 36 °F (at 2:00 PM)
Average temperature yesterday: 72 °F

Past Weeks' High & Low Weather Summary

 TemperatureHumidityPressure
High97 °F (Aug 22, 3:00 PM)100% (Aug 21, 5:00 AM)30.07 "Hg (Aug 21, 5:00 AM)
Low36 °F (Aug 28, 12:00 AM)32% (Aug 24, 1:00 PM)29.74 "Hg (Aug 26, 4:00 PM)
Average80 °F74%29.90 "Hg
* Reported Aug 20 1:00 PM — Sep 4 1:00 PM, Rio Branco, Weather by CustomWeather, © 2015

Note: Actual official high and low records may vary slightly from our data, if they occured in-between our weather recording intervals... More about our weather records

Advertising

Rio Branco weather history for previous 24 hours

 ConditionsComfort  
Time TempWeatherWind HumidityBarometerVisibility
1:00 PM
Fri, Sep 4
88 °FScattered clouds.3 mph62%29.89 "HgN/A
12:00 PM88 °FBroken clouds.3 mph62%29.95 "HgN/A
11:00 AM88 °FSunny.5 mph66%29.98 "Hg10 mi
10:00 AM86 °FSunny.3 mph66%29.98 "Hg10 mi
9:00 AM81 °FSunny.2 mph79%29.98 "Hg10 mi
8:00 AM77 °FScattered clouds.2 mph89%29.98 "HgN/A
7:00 AM73 °FScattered clouds.2 mph94%29.98 "HgN/A
6:00 AM70 °FFog.3 mph94%29.95 "Hg3 mi
5:00 AM70 °FPassing clouds.No wind94%29.92 "HgN/A
4:00 AM70 °FPassing clouds.2 mph100%29.89 "HgN/A
3:00 AM70 °FPassing clouds.2 mph100%29.89 "HgN/A
2:00 AM70 °FClear.No wind100%29.89 "Hg10 mi
1:00 AM72 °FPassing clouds.2 mph94%29.89 "HgN/A
12:00 AM70 °FPassing clouds.2 mph100%29.92 "Hg4 mi
11:00 PM
Thu, Sep 3
70 °FPassing clouds.1 mph100%29.92 "HgN/A
10:00 PM72 °FPartly cloudy.2 mph94%29.92 "HgN/A
9:00 PM72 °FPartly cloudy.2 mph94%29.92 "HgN/A
8:00 PM72 °FPartly cloudy.2 mph94%29.92 "HgN/A
7:00 PM72 °FMostly cloudy.2 mph94%29.89 "Hg5 mi
6:00 PM72 °FBroken clouds.6 mph94%29.86 "Hg5 mi
5:00 PM72 °FMostly cloudy.3 mph94%29.86 "Hg5 mi
4:00 PM72 °FLight rain. Partly sunny.6 mph94%29.86 "HgN/A
3:00 PM36 °FThunderstorms. Mostly cloudy.6 mph100%29.86 "Hg5 mi
2:00 PM36 °FThunderstorms. Mostly cloudy.7 mph100%29.95 "Hg5 mi
Weather by CustomWeather, © 2015

See weather overviewHow to use our weather pages